Theta_e
306 306 307 308 308 308 308 309 310 310 311 312 314 314 314 313 313 316 316 324 313 306 307 309 308 304 304 304 300 305 305 304 302 297 295 296 294 297 294 295 294 293 292 291 294 288 283 298 298 293 297 301 300 299
306 306 306 307 307 307 308 308 309 309 310 311 312 314 314 313 312 313 313 318 320 311 309 314 313 312 310 309 307 308 304 305 305 299 299 298 295 296 295 289 299 292 295 293 290 288 297 300 299 304 304 301 300 300
306 306 306 306 307 307 307 308 308 309 310 311 312 313 314 313 312 313 315 318 316 311 309 308 307 312 315 314 316 307 307 309 307 310 306 301 294 298 293 292 295 297 301 295 294 295 297 300 302 302 302 301 301 302
305 305 306 306 306 307 307 307 308 309 309 310 311 313 314 313 312 311 316 317 315 311 304 306 313 310 314 314 313 313 312 314 313 308 302 300 296 299 293 295 294 296 298 293 294 297 298 299 300 301 302 302 301 301
304 305 306 306 306 306 307 307 308 308 309 310 312 313 313 312 311 313 320 319 318 312 303 304 311 312 313 313 310 312 312 311 305 304 302 298 299 300 298 299 294 298 297 297 294 298 299 299 301 302 301 301 302 301
304 304 305 305 306 306 307 307 308 308 309 310 311 312 312 311 308 319 312 318 319 318 309 302 311 310 311 311 310 308 309 308 305 303 302 302 302 302 298 293 298 300 301 302 299 302 302 303 304 304 302 302 303 302
304 304 305 305 306 306 307 307 308 308 309 309 310 310 311 310 315 311 308 312 311 320 308 301 303 310 311 311 311 311 310 308 306 304 302 302 301 301 298 293 298 300 302 302 304 304 301 302 301 304 304 304 303 305
303 304 305 305 305 306 307 307 308 308 308 309 309 310 311 307 308 314 319 315 314 315 310 300 300 304 311 306 303 311 306 309 307 305 305 302 302 301 293 299 301 302 303 303 303 304 304 304 304 303 304 304 302 302
303 304 304 305 305 306 307 307 307 307 308 308 309 310 315 312 311 313 311 312 322 311 304 304 298 297 309 306 308 307 308 303 310 302 302 301 298 292 299 300 300 301 302 302 303 303 303 301 302 303 304 305 303 304
303 304 304 305 305 306 306 307 307 307 308 309 315 313 310 315 308 313 315 311 311 312 310 302 305 299 305 303 305 307 306 303 299 302 306 300 297 302 302 303 304 303 303 303 299 299 302 301 303 303 304 305 305 304
303 304 305 305 305 306 307 307 306 307 312 317 312 310 315 310 314 311 305 302 304 301 305 304 304 301 308 300 301 307 304 304 295 298 298 297 297 298 304 304 305 305 305 304 305 306 306 306 306 305 304 305 304 304
303 304 304 304 305 306 307 306 306 314 317 310 311 316 318 311 307 299 300 303 301 297 303 301 303 305 306 309 305 305 300 301 292 302 296 291 299 303 304 304 304 305 306 306 306 305 306 305 306 306 305 304 304 305
303 304 304 304 305 306 305 305 306 307 308 320 315 307 305 304 294 293 292 298 298 302 303 303 301 304 306 308 304 302 295 296 304 295 293 295 301 303 304 304 304 306 305 305 304 304 305 305 305 305 304 306 305 306
303 303 304 304 306 305 305 306 307 310 316 310 303 293 299 297 300 301 299 300 303 303 303 304 303 302 304 302 302 295 299 299 292 289 289 299 301 303 305 306 305 304 304 303 304 303 303 303 304 305 305 307 305 305
303 303 304 305 304 305 306 306 307 318 316 305 304 294 300 305 305 306 305 304 307 307 305 303 303 303 301 298 300 298 294 291 293 294 298 302 304 304 304 305 305 304 305 304 305 304 304 304 304 305 306 307 306 306
303 303 308 305 304 304 305 310 317 321 313 307 304 300 306 302 303 304 305 303 308 306 306 304 299 297 296 299 294 292 291 289 295 300 303 305 305 304 305 306 305 306 305 307 307 306 305 304 305 306 307 307 307 306
302 309 303 304 303 304 307 313 316 309 306 303 303 307 305 304 305 304 306 305 309 304 299 300 294 293 300 295 293 298 296 299 303 305 304 307 306 305 305 305 305 304 305 306 305 306 306 307 306 305 305 305 308 308
306 308 305 304 304 309 316 315 309 306 302 305 302 305 309 308 305 305 309 311 307 303 301 298 301 295 294 292 296 300 301 303 304 305 305 307 307 307 306 305 305 305 306 305 306 307 307 305 306 305 307 307 306 305
303 303 302 303 304 306 307 308 310 301 304 307 307 307 307 307 309 309 308 311 311 310 304 303 297 296 297 301 301 302 304 305 304 307 306 309 309 308 307 306 306 306 305 307 307 305 305 307 305 305 304 304 302 303
301 302 303 304 304 308 303 306 314 304 301 305 307 304 305 306 308 308 307 310 308 307 301 299 299 302 301 303 307 307 306 310 308 306 305 307 302 306 308 306 304 306 307 307 307 297 304 304 305 305 304 302 301 303
304 307 306 307 311 310 305 305 304 305 304 303 306 307 304 307 305 304 305 308 307 302 299 302 302 305 308 308 310 309 309 309 307 306 306 304 310 306 306 307 307 306 305 307 303 303 299 303 303 304 303 303 304 304
310 304 308 309 305 305 304 307 304 308 304 303 304 304 302 301 302 302 308 303 302 303 304 304 305 306 305 305 306 308 308 308 308 306 298 300 304 305 306 306 307 305 305 306 307 305 303 304 303 303 303 303 301 303
306 306 306 305 301 301 297 306 300 302 299 302 306 301 301 301 303 309 300 302 303 307 307 307 309 310 307 307 308 308 308 308 306 305 309 307 308 309 306 305 308 307 305 305 306 304 303 294 299 301 303 303 302 302
299 303 299 299 300 296 303 298 301 300 302 300 299 297 299 301 306 301 298 301 304 306 307 309 309 306 306 307 305 306 308 310 306 306 310 310 308 307 307 306 306 307 307 305 305 305 305 304 296 303 302 302 302 301
297 295 295 289 300 297 295 296 299 299 297 299 298 298 299 305 297 297 297 300 305 303 304 308 307 306 304 303 306 307 309 308 305 304 307 308 306 306 306 306 306 307 307 304 304 305 304 304 303 303 303 302 301 301
290 296 291 295 295 294 296 293 295 297 299 297 298 302 304 298 294 294 298 304 305 305 305 306 304 303 303 305 304 304 305 308 307 305 307 307 307 305 303 303 302 303 307 306 304 304 303 304 303 303 302 301 290 300
289 295 298 301 299 300 299 300 301 299 297 296 298 297 298 292 293 299 305 306 306 307 308 308 306 306 305 306 307 306 307 309 309 307 308 309 309 309 307 304 304 306 309 307 307 305 304 303 303 302 302 302 302 301
299 300 296 299 299 300 296 297 296 295 298 302 300 295 293 294 296 303 305 309 309 310 308 309 309 308 308 306 307 308 307 308 310 310 310 310 310 310 311 310 309 291 307 308 307 307 305 304 304 303 302 302 301 302
299 302 301 298 299 298 298 298 298 300 303 302 298 297 298 303 306 305 309 310 310 308 306 306 307 309 309 310 309 309 308 307 304 304 302 303 304 306 309 309 310 309 309 308 289 295 303 302 303 303 302 302 302 302
299 303 299 298 297 296 300 303 301 304 304 303 304 304 304 306 309 313 312 310 309 308 308 308 308 307 306 305 306 307 310 310 309 306 302 302 304 306 308 308 308 307 307 307 306 304 287 298 296 301 301 301 300 301
303 301 298 298 297 300 303 305 306 306 305 304 305 302 302 305 310 310 308 309 310 310 309 308 307 308 307 307 306 304 304 309 309 308 308 307 309 307 308 308 308 308 308 308 306 304 303 302 301 300 299 299 298 297
302 299 298 296 298 302 304 302 302 301 302 302 302 304 303 302 301 302 303 306 306 305 300 305 307 308 309 311 311 309 296 309 308 305 304 308 309 308 308 307 309 308 307 305 304 302 301 300 298 297 296 294 293 292
300 300 300 298 297 298 302 301 299 298 300 299 300 302 301 302 297 298 304 304 302 301 302 305 307 309 310 311 312 311 300 302 293 287 288 286 286 294 306 307 306 306 304 300 299 297 295 295 294 292 291 290 290 290
Wind_Speed
15 16 16 17 18 18 19 19 19 19 18 19 19 19 19 20 19 11 9 11 6 9 10 13 13 12 12 10 10 12 3 7 5 8 6 3 5 2 4 3 6 7 7 7 9 2 5 3 2 4 6 10 8 7
14 15 15 17 17 18 18 18 19 18 17 17 17 17 17 16 18 16 6 5 4 6 7 6 10 10 10 9 8 10 6 6 5 7 6 5 5 5 6 2 6 2 6 3 4 2 2 5 8 7 8 8 6 7
14 15 15 16 16 17 18 19 18 18 18 17 16 15 15 15 16 10 8 7 7 2 6 9 12 10 8 8 6 4 2 8 5 5 3 3 4 6 5 7 6 4 7 5 4 8 7 8 6 6 7 7 5 6
14 15 15 16 16 16 17 17 18 18 18 17 16 14 13 13 14 13 7 8 8 6 3 8 7 9 7 7 5 4 6 3 7 5 5 4 4 5 5 6 6 5 5 2 8 8 8 7 7 7 8 6 5 3
14 15 15 15 15 16 17 18 18 18 17 17 16 14 13 12 11 9 2 7 7 8 6 5 6 8 6 6 7 5 5 7 2 1 4 3 6 2 7 3 3 3 4 2 2 6 5 9 8 8 7 6 5 4
14 15 15 15 16 16 17 17 18 18 18 17 17 14 13 12 8 9 7 5 8 6 6 3 6 6 6 4 4 5 5 5 5 4 4 5 2 3 2 6 5 7 3 5 7 7 9 9 8 7 6 5 5 2
14 15 15 16 16 17 17 18 19 19 18 17 14 13 12 11 7 7 6 5 7 7 5 6 4 6 7 8 2 1 3 3 5 3 3 4 4 2 3 1 5 6 7 9 8 9 8 6 7 6 4 3 5 5
14 15 15 16 16 17 17 18 20 20 19 17 13 11 8 3 4 4 4 3 6 7 2 4 4 3 6 6 3 2 5 2 3 2 1 4 4 5 0 7 6 7 8 7 6 1 4 5 5 4 4 5 5 4
15 15 16 16 16 17 17 19 21 22 21 17 11 7 4 5 4 6 4 7 5 5 4 2 4 5 3 6 4 4 4 3 0 1 3 5 2 1 6 7 6 6 5 5 5 3 2 2 5 3 4 11 3 8
15 16 16 17 16 17 17 19 23 24 23 16 6 7 2 5 1 5 4 5 1 1 2 3 4 6 6 7 3 2 3 2 2 3 2 3 2 4 2 4 6 4 3 2 1 5 5 7 5 7 5 9 9 4
16 16 17 17 17 17 17 18 22 23 16 2 4 4 4 6 5 3 1 3 3 2 3 4 6 8 4 7 6 4 3 3 1 2 3 3 2 4 7 6 5 4 3 2 4 5 7 9 7 6 5 10 4 4
16 17 17 17 17 16 15 16 17 11 5 5 5 5 5 3 2 4 2 1 1 3 4 6 7 5 4 3 3 4 2 4 2 1 3 3 0 6 4 1 0 2 2 4 4 1 4 2 1 5 3 3 4 2
17 18 17 17 15 14 15 16 13 11 12 6 6 3 3 1 4 2 4 2 3 5 5 8 8 5 2 3 3 3 4 2 2 3 2 5 6 3 4 4 4 3 1 3 2 2 4 6 1 3 4 6 4 5
18 18 18 15 13 15 16 15 13 9 6 4 2 2 3 2 1 3 5 5 5 5 7 7 6 5 5 2 4 4 3 3 2 2 3 3 5 3 3 2 6 5 2 3 2 2 4 4 5 2 4 2 4 5
19 20 17 8 12 16 17 15 10 5 5 3 2 3 2 2 4 2 4 5 3 4 7 6 8 5 5 4 3 3 3 2 3 3 3 8 4 3 2 2 2 1 2 3 2 5 6 5 4 6 5 6 4 5
21 21 2 8 15 20 18 12 5 4 3 4 3 5 2 7 4 2 3 3 3 6 7 4 6 5 4 2 4 3 3 0 4 2 3 6 4 4 3 3 2 2 4 2 1 0 4 5 5 6 6 4 9 6
20 3 11 15 20 24 6 4 3 5 4 3 4 3 5 5 3 4 4 6 5 7 5 4 5 2 5 4 3 4 2 2 3 2 3 4 4 5 4 4 4 5 5 4 4 4 7 6 7 8 5 4 10 1
6 11 15 18 15 10 4 5 4 4 6 5 5 5 1 3 5 6 1 1 4 6 6 4 4 6 5 5 3 4 6 3 3 1 2 6 5 5 5 5 5 5 6 4 2 7 4 8 6 4 7 8 8 3
14 16 22 18 7 5 4 3 3 5 5 3 5 5 4 4 3 3 5 1 3 4 5 3 4 4 4 6 7 9 6 4 2 2 6 6 6 7 6 6 6 6 4 5 5 5 3 4 5 5 6 6 8 5
25 18 12 7 6 4 5 3 2 5 4 3 4 6 5 5 4 4 5 3 5 2 4 3 5 8 6 7 4 6 6 5 5 5 7 3 7 17 8 6 6 4 7 3 8 8 6 7 2 3 5 6 7 5
11 5 4 4 5 6 5 4 5 4 5 4 6 3 4 5 5 6 6 5 3 7 7 6 6 5 6 5 3 3 6 6 5 4 6 6 3 5 3 4 5 6 3 4 6 9 11 4 5 5 6 7 5 6
2 4 4 3 4 4 5 5 5 3 4 6 6 6 5 6 7 3 2 6 6 7 5 5 6 5 6 5 5 6 7 7 7 6 4 5 6 6 4 3 3 1 5 6 5 8 4 4 5 6 5 8 7 5
7 4 5 5 4 2 6 2 5 5 5 4 2 4 5 4 1 2 5 4 4 5 5 4 2 4 6 6 5 6 6 6 7 7 1 5 4 5 1 2 3 3 6 8 2 3 4 4 5 5 5 5 7 7
5 5 5 4 7 5 2 5 5 5 4 6 6 7 7 4 2 5 8 7 3 5 3 4 4 6 6 4 5 4 3 2 4 4 4 4 4 6 7 8 9 9 2 4 2 2 3 3 1 6 3 7 8 7
4 6 4 6 5 5 6 6 8 7 8 8 9 7 4 1 6 9 11 6 1 6 1 9 3 5 3 5 2 3 3 6 5 4 4 6 8 8 7 5 3 3 3 5 5 3 4 4 5 5 6 5 7 9
5 6 6 5 4 6 5 5 5 7 7 8 5 3 2 4 7 7 4 1 2 4 11 13 3 3 3 3 4 4 5 5 4 5 3 4 3 3 2 7 5 5 7 6 5 5 6 6 7 7 9 5 4 8
6 7 7 5 5 5 5 7 8 6 8 10 7 5 2 4 5 2 2 7 6 4 4 5 3 11 5 3 4 5 3 4 4 6 5 5 6 6 7 6 5 6 8 5 6 5 6 6 8 7 9 8 6 7
7 5 10 8 8 6 10 9 9 8 7 4 3 5 3 2 4 6 4 6 8 6 7 8 6 8 9 4 3 11 5 6 6 6 7 8 10 8 9 7 6 6 5 8 7 6 5 7 7 8 9 9 7 6
6 6 7 10 10 5 5 7 7 5 5 4 7 8 8 8 5 6 6 5 4 6 7 7 8 2 5 8 4 5 6 6 7 12 7 12 8 8 9 4 8 7 8 7 6 1 2 4 7 8 8 8 8 9
9 8 7 7 8 8 6 3 5 7 6 7 7 7 8 3 7 9 8 8 8 8 8 9 9 8 5 5 7 5 5 9 6 7 6 7 11 9 5 4 6 5 5 4 6 10 5 7 6 4 2 6 6 8
3 3 5 6 6 5 5 4 6 7 8 8 8 9 9 1 7 8 12 10 10 11 11 12 11 13 16 4 3 4 5 8 6 5 2 2 14 10 4 5 4 4 3 2 4 5 3 4 7 8 9 9 11 10
4 6 4 6 3 4 7 8 7 7 7 8 8 7 6 7 3 5 8 11 11 11 10 11 11 12 10 10 8 6 6 3 5 4 17 10 11 3 3 5 2 2 2 4 5 10 12 9 10 11 9 12 10 10
4 4 3 3 4 6 4 3 6 6 5 5 5 3 4 6 7 5 7 9 10 11 12 13 13 12 10 8 7 6 11 11 10 7 9 11 10 10 6 3 5 5 12 12 14 12 12 9 10 9 9 9 9 8
Wind_Direction
6 3 360 358 356 359 3 359 355 354 357 2 359 359 356 351 349 350 49 8 31 87 61 36 33 14 355 353 339 9 1 309 318 313 347 1 336 330 247 341 340 354 335 18 334 356 88 360 92 22 94 103 120 126
5 358 358 355 352 356 359 356 352 351 354 358 356 354 352 346 339 334 41 22 18 66 92 98 60 29 9 354 320 335 358 41 341 343 2 336 350 349 339 25 0 66 23 57 64 80 18 48 86 94 108 123 123 115
3 355 355 351 349 352 353 350 347 347 351 351 351 348 344 341 331 335 16 4 301 153 70 53 26 30 10 27 29 321 29 342 15 322 265 298 25 344 13 43 35 33 353 98 55 117 107 99 101 108 102 110 128 116
360 353 354 347 345 349 347 343 341 341 345 345 344 342 339 334 326 324 33 13 349 297 47 78 48 45 19 30 31 357 340 313 265 284 46 43 39 22 47 61 25 36 23 354 115 109 121 100 99 102 106 117 114 113
355 352 348 341 342 344 340 338 336 336 338 339 336 338 332 325 314 288 357 27 11 325 352 87 81 39 23 23 41 42 16 304 351 31 53 29 80 55 94 136 126 318 60 343 116 128 88 118 130 131 147 153 153 145
351 346 340 336 341 341 336 333 331 331 332 331 330 330 321 316 301 263 186 96 14 327 289 225 130 37 20 347 357 40 350 329 30 350 77 105 45 287 297 77 39 81 319 79 97 110 111 133 147 169 142 159 177 172
345 340 333 334 339 336 331 329 329 328 327 324 323 318 312 307 300 1 20 5 332 298 277 326 134 75 357 264 123 344 129 33 338 86 18 66 83 272 59 113 97 98 100 104 111 127 138 168 156 190 200 187 155 252
338 332 329 335 335 331 329 326 326 325 324 319 313 304 290 32 115 185 92 299 315 272 286 346 339 49 24 335 329 43 304 142 29 83 291 9 73 58 160 183 118 128 123 154 141 127 138 168 164 197 223 208 250 261
332 326 330 333 330 329 327 324 324 324 321 313 305 300 226 230 317 43 331 286 259 314 332 312 6 320 28 307 340 360 286 354 219 12 63 78 16 266 160 149 152 158 183 168 187 235 217 187 238 290 266 273 264 262
325 326 329 325 327 331 328 324 326 323 316 303 265 214 217 44 332 243 188 220 210 154 277 349 355 332 333 329 299 19 284 249 212 68 113 99 246 147 213 167 159 180 39 297 1 280 279 265 268 237 354 302 244 280
323 325 321 322 328 329 325 325 327 327 293 269 309 20 3 131 245 225 326 331 315 280 21 345 11 318 348 324 315 304 299 271 173 144 233 139 127 230 210 203 223 215 236 293 272 297 324 324 341 329 209 256 79 284
322 318 316 323 327 324 320 326 331 316 17 339 305 259 254 255 8 287 325 191 324 358 331 336 328 322 295 342 298 274 278 321 8 302 48 26 84 64 34 302 48 20 335 308 299 280 260 294 223 201 219 39 275 38
318 312 316 323 322 317 320 322 322 292 277 214 224 282 32 182 1 282 338 346 345 345 327 331 330 318 219 248 279 286 270 301 222 61 99 226 84 169 145 139 146 160 253 270 240 245 153 249 296 23 14 2 337 349
313 313 319 320 313 317 318 316 319 298 262 278 309 327 267 257 359 335 333 333 353 315 330 316 304 312 322 343 249 286 254 278 27 71 247 228 127 135 177 180 193 203 139 309 18 283 258 330 339 39 340 299 278 299
315 316 319 303 326 326 318 313 308 253 279 291 272 235 262 334 227 8 327 277 275 338 300 318 303 231 269 243 242 300 271 64 153 236 279 96 143 187 191 156 163 213 289 239 283 342 325 335 327 331 301 309 319 340
321 306 336 335 339 327 317 295 223 251 253 254 238 260 206 245 267 200 266 329 3 335 302 296 268 285 264 261 275 251 355 263 264 11 71 120 160 202 247 239 200 298 297 284 230 60 293 276 278 283 307 40 296 357
313 318 17 1 339 312 281 264 249 233 270 246 238 210 279 281 307 313 358 340 19 290 325 315 318 290 281 254 272 23 279 303 265 341 122 63 158 206 215 231 199 223 229 223 282 337 296 288 282 299 30 288 297 313
277 331 350 342 338 290 225 226 264 258 247 250 261 301 133 267 278 294 66 20 312 329 328 346 292 289 292 302 305 270 298 355 8 185 186 147 202 208 211 219 200 200 228 257 358 278 5 282 340 243 226 262 274 200
300 301 302 306 310 301 280 217 252 266 260 305 278 277 268 280 268 239 280 241 288 310 283 299 283 297 306 296 292 305 338 317 277 313 311 202 216 217 200 196 216 233 257 282 270 292 272 297 269 308 306 325 334 7
296 279 270 262 234 259 256 224 224 274 280 329 293 269 259 273 331 315 278 271 247 258 263 231 244 265 324 349 343 301 303 303 295 295 291 296 48 324 187 212 215 208 233 283 336 17 284 272 276 298 354 341 297 312
288 54 267 208 211 232 281 280 236 270 306 267 283 296 277 273 250 262 233 203 173 250 270 290 298 324 13 332 290 283 282 279 280 279 285 312 183 242 149 208 208 260 243 145 173 248 244 314 355 343 326 304 2 343
321 329 283 186 260 235 253 237 281 356 259 266 290 257 261 268 265 272 5 274 252 266 292 304 320 351 317 304 326 324 325 309 283 275 220 265 265 360 329 54 142 249 271 284 274 256 322 29 20 310 318 10 309 351
287 202 225 233 245 231 259 256 242 227 247 255 226 258 260 251 244 51 266 275 281 340 300 330 317 292 311 319 300 281 275 289 282 280 165 264 269 233 82 307 291 247 237 246 214 337 353 58 193 291 327 319 350 349
147 255 247 234 205 252 236 232 218 257 247 250 258 267 279 289 9 265 284 285 9 255 221 166 222 248 209 199 272 297 315 331 298 226 190 227 210 217 211 213 222 233 339 39 17 318 284 312 58 266 338 354 346 337
267 262 171 260 250 239 237 235 226 238 260 272 267 268 285 198 282 288 275 269 18 37 96 262 220 250 274 295 194 209 162 259 241 240 165 177 213 213 209 211 223 270 189 230 220 227 279 279 278 322 317 304 315 305
230 222 189 228 207 221 230 259 241 258 270 279 272 275 284 281 271 261 292 334 246 12 19 329 273 252 248 250 263 241 191 198 280 286 303 276 289 302 239 280 265 214 215 222 246 274 286 321 314 316 307 318 167 262
245 238 202 238 278 259 258 268 275 280 276 279 279 273 232 257 259 280 355 8 320 344 256 263 108 283 281 238 215 212 219 209 233 279 290 285 276 266 271 273 267 295 302 266 253 267 278 276 287 317 326 320 304 293
243 266 244 242 218 250 266 283 289 278 271 259 248 256 259 274 316 347 300 290 1 340 312 305 289 233 253 190 347 304 210 206 211 231 256 276 258 257 285 268 257 139 280 299 304 276 290 281 298 313 318 309 316 313
237 226 230 247 246 245 253 260 261 281 313 313 293 296 296 299 322 294 313 350 275 311 302 307 326 210 251 291 264 268 268 264 258 249 210 251 301 297 209 226 269 215 232 231 129 53 314 318 315 314 320 312 339 339
241 228 228 245 251 248 249 267 294 299 313 302 293 286 274 309 31 23 1 355 335 324 316 308 301 309 282 251 280 311 305 274 272 283 278 302 300 298 321 215 250 272 255 237 175 163 161 214 226 216 296 336 337 342
286 230 247 256 268 274 300 331 306 290 275 269 268 269 273 197 134 65 26 7 345 1 3 352 0 1 341 331 44 316 332 30 2 343 4 349 280 284 326 320 307 306 333 293 269 282 309 321 51 32 11 17 30 16
225 226 250 267 282 316 311 281 282 287 284 276 270 263 270 260 82 53 360 4 2 356 346 335 332 330 326 340 348 346 177 184 95 357 318 261 247 290 266 261 245 358 291 279 7 31 41 44 59 47 36 46 51 55
212 237 265 308 286 266 256 261 295 290 289 275 281 329 357 44 72 21 25 15 360 349 340 334 320 309 317 343 2 343 70 65 58 25 5 27 32 11 323 32 59 49 68 76 74 74 68 62 65 69 84 85 83 82